Date String (YYYY-MM-DD hh:mm:ss) UTC,Instrument flags,absolute air pressure of the measurement (hPa),sample flow rate (lpm),inlet stack bypass flow (lpm),air temperature of the measurement (°C),ambient temperature measured by the external sensor (°C),aerosol sample conditioner tube jacket temperature (°C),OPC LED temperature (°C),internal box temperature (°C),relative humidity of the measurement (%),span deviation,mass concentration of particles derived from Lorenz-Mie calculation of OPC scattering (μg/m³),mass concentration of particles derived from Lorenz-Mie calculation of OPC scattering (μg/m³),mass concentration of particles derived from Lorenz-Mie calculation of OPC scattering (μg/m³)
DateTimeUTC,F1_M11,P_M11,Q1_M11,Q2_M11,T1_M11,T2_M11,T3_M11,T4_M11,T5_M11,U1_M11,ZSPAN_M11,X2_M11,X0_M11,X1_M11
2023-09-14 14:00:00,SystemResetWarning,0832.5,5.00,000.00,028.5,025.0,000.0,037.2,029.7,19.7,0000.0,0004.39,0007.46,0004.06
2023-09-14 14:01:00,SystemResetWarning,0832.5,5.00,000.00,028.5,025.4,000.0,037.1,029.8,19.5,0000.0,0004.37,0007.40,0004.04
2023-09-14 14:02:00,SystemResetWarning,0832.6,5.00,000.00,028.5,025.7,000.0,037.1,029.9,19.4,0000.0,0004.37,0007.40,0004.03
2023-09-14 14:03:00,SystemResetWarning,0832.6,5.00,000.00,028.4,026.0,000.0,037.0,029.9,19.8,0000.0,0004.33,0007.30,0004.01
2023-09-14 14:04:00,SystemResetWarning,0832.6,5.00,000.00,028.4,026.2,000.0,037.0,030.0,21.7,0000.0,0004.33,0007.27,0004.00
2023-09-14 14:05:00,SystemResetWarning,0832.6,5.01,000.00,028.4,026.4,000.0,037.0,030.0,20.8,0000.0,0004.30,0007.15,0003.99
2023-09-14 14:06:00,SystemResetWarning,0832.6,4.99,000.00,028.5,026.6,000.0,036.9,030.0,20.6,0000.0,0004.30,0007.09,0003.99
2023-09-14 14:07:00,SystemResetWarning,0832.6,4.99,000.00,028.5,026.7,000.0,036.9,030.1,20.1,0000.0,0004.29,0007.00,0003.99
2023-09-14 14:08:00,SystemResetWarning,0832.6,5.00,000.00,028.5,026.8,000.0,036.9,030.1,20.1,0000.0,0004.29,0007.04,0003.99
2023-09-14 14:09:00,SystemResetWarning,0832.6,5.00,000.00,028.5,026.9,000.0,036.9,030.1,20.2,0000.0,0004.28,0006.99,0003.97
2023-09-14 14:10:00,SystemResetWarning,0832.6,5.00,000.00,028.5,026.9,000.0,036.9,030.1,20.3,0000.0,0004.30,0006.86,0003.97
2023-09-14 14:11:00,SystemResetWarning,0832.6,5.00,000.00,028.5,027.0,000.0,036.9,030.2,20.2,0000.0,0004.31,0006.65,0003.96
2023-09-14 14:12:00,SystemResetWarning,0832.6,5.00,000.00,028.5,027.1,000.0,036.9,030.2,20.5,0000.0,0004.34,0006.90,0003.96
2023-09-14 14:13:00,SystemResetWarning,0832.6,4.99,000.00,028.6,027.1,000.0,036.9,030.2,20.7,0000.0,0004.37,0007.01,0003.96
2023-09-14 14:14:00,SystemResetWarning,0832.7,5.01,000.00,028.6,027.1,000.0,036.9,030.2,20.8,0000.0,0004.40,0007.13,0003.97
2023-09-14 14:15:00,SystemResetWarning,0832.7,5.00,000.00,028.6,027.2,000.0,036.9,030.2,21.8,0000.0,0004.42,0007.09,0004.00
2023-09-14 14:16:00,SystemResetWarning,0832.7,4.99,000.00,028.6,027.2,000.0,036.9,030.3,22.3,0000.0,0004.43,0007.07,0004.01
2023-09-14 14:17:00,SystemResetWarning,0832.7,4.99,000.00,028.6,027.2,000.0,036.9,030.3,22.2,0000.0,0004.44,0007.20,0004.02
2023-09-14 14:18:00,SystemResetWarning,0832.9,4.99,000.00,028.6,027.3,000.0,036.9,030.3,21.4,0000.0,0004.47,0007.32,0004.03
2023-09-14 14:19:00,SystemResetWarning,0832.7,5.01,000.00,028.7,027.3,000.0,036.9,030.4,21.5,0000.0,0004.49,0007.34,0004.04
2023-09-14 14:20:00,SystemResetWarning,0832.7,5.00,000.00,028.7,027.3,000.0,036.9,030.3,21.7,0000.0,0004.51,0007.37,0004.07
2023-09-14 14:21:00,SystemResetWarning,0832.8,5.00,000.00,028.7,027.3,000.0,036.9,030.3,21.6,0000.0,0004.53,0007.62,0004.09
2023-09-14 14:22:00,SystemResetWarning,0832.8,5.00,000.00,028.7,027.3,000.0,036.9,030.4,21.9,0000.0,0004.52,0008.16,0004.11
2023-09-14 14:23:00,SystemResetWarning,0832.8,4.99,000.00,028.7,027.3,000.0,037.0,030.4,21.4,0000.0,0004.52,0009.14,0004.14
2023-09-14 14:24:00,SystemResetWarning,0832.7,4.99,000.00,028.7,027.3,000.0,037.0,030.4,21.1,0000.0,0004.50,0009.43,0004.16
2023-09-14 14:25:00,SystemResetWarning,0832.8,5.00,000.00,028.7,027.4,000.0,037.0,030.4,21.0,0000.0,0004.49,0009.48,0004.17
2023-09-14 14:26:00,SystemResetWarning,0832.8,5.01,000.00,028.8,027.4,000.0,037.0,030.4,21.0,0000.0,0004.51,0009.81,0004.17
2023-09-14 14:27:00,SystemResetWarning,0832.8,5.00,000.00,028.8,027.4,000.0,037.0,030.5,20.9,0000.0,0004.54,0010.24,0004.17
2023-09-14 14:28:00,SystemResetWarning,0832.7,5.00,000.00,028.8,027.4,000.0,037.0,030.5,21.0,0000.0,0004.56,0010.32,0004.18
2023-09-14 14:29:00,SystemResetWarning,0832.8,5.00,000.00,028.8,027.5,000.0,037.0,030.5,21.0,0000.0,0004.57,0010.33,0004.17
2023-09-14 14:30:00,SystemResetWarning,0832.8,4.99,000.00,028.8,027.5,000.0,037.0,030.5,20.9,0000.0,0004.58,0010.37,0004.17
2023-09-14 14:31:00,SystemResetWarning,0832.9,4.99,000.00,028.8,027.5,000.0,037.1,030.5,21.2,0000.0,0004.56,0010.45,0004.15
2023-09-14 14:32:00,SystemResetWarning,0832.8,5.00,000.00,028.9,027.5,000.0,037.1,030.5,21.6,0000.0,0004.52,0010.51,0004.13
2023-09-14 14:33:00,SystemResetWarning,0832.8,5.02,000.00,028.9,027.5,000.0,037.1,030.6,21.7,0000.0,0004.49,0010.33,0004.11
2023-09-14 14:34:00,SystemResetWarning,0832.8,4.99,000.00,028.9,027.6,000.0,037.1,030.6,21.5,0000.0,0004.49,0009.30,0004.10
2023-09-14 14:35:00,SystemResetWarning,0833.0,4.99,000.00,028.9,027.6,000.0,037.1,030.6,21.9,0000.0,0004.51,0008.98,0004.10
2023-09-14 14:36:00,SystemResetWarning,0832.9,5.01,000.00,028.9,027.6,000.0,037.1,030.6,21.3,0000.0,0004.52,0008.99,0004.10
2023-09-14 14:37:00,SystemResetWarning,0833.0,5.01,000.00,028.9,027.6,000.0,037.2,030.6,21.2,0000.0,0004.51,0008.83,0004.09
2023-09-14 14:38:00,SystemResetWarning,0833.0,4.99,000.00,029.0,027.6,000.0,037.2,030.6,21.0,0000.0,0004.51,0008.53,0004.09
2023-09-14 14:39:00,SystemResetWarning,0833.1,4.99,000.00,029.0,027.6,000.0,037.2,030.6,21.1,0000.0,0004.49,0008.49,0004.08
2023-09-14 14:40:00,SystemResetWarning,0833.2,4.99,000.00,029.0,027.7,000.0,037.2,030.7,20.3,0000.0,0004.49,0008.66,0004.08
2023-09-14 14:41:00,SystemResetWarning,0832.9,5.01,000.00,029.0,027.7,000.0,037.2,030.7,20.7,0000.0,0004.51,0008.81,0004.09
2023-09-14 14:42:00,SystemResetWarning,0833.4,5.01,000.00,029.0,027.7,000.0,037.2,030.7,21.4,0000.0,0004.53,0008.93,0004.09
2023-09-14 14:43:00,SystemResetWarning,0833.3,5.00,000.00,029.0,027.7,000.0,037.2,030.7,20.9,0000.0,0004.57,0009.27,0004.10
2023-09-14 14:44:00,SystemResetWarning,0833.3,4.99,000.00,029.0,027.1,000.0,037.2,030.6,21.2,0000.0,0004.61,0009.19,0004.10
2023-09-14 14:45:00,SystemResetWarning,0833.0,5.00,000.00,028.9,025.4,000.0,037.2,029.9,21.1,0000.0,0004.61,0009.42,0004.11
2023-09-14 14:46:00,SystemResetWarning,0832.8,5.01,000.00,028.7,024.4,000.0,037.1,029.7,20.2,0000.0,0004.61,0009.67,0004.10
2023-09-14 14:47:00,SystemResetWarning,0832.8,5.01,000.00,028.6,024.5,000.0,037.1,029.7,20.4,0000.0,0004.63,0009.85,0004.11
2023-09-14 14:48:00,SystemResetWarning,0832.9,4.99,000.00,028.5,024.8,000.0,037.0,029.6,20.4,0000.0,0004.66,0010.13,0004.12
2023-09-14 14:49:00,SystemResetWarning,0833.2,4.99,000.00,028.4,025.1,000.0,037.0,029.7,20.9,0000.0,0004.65,0010.05,0004.12
2023-09-14 14:50:00,SystemResetWarning,0833.4,5.01,000.00,028.4,025.5,000.0,037.0,029.8,21.1,0000.0,0004.63,0010.67,0004.13
2023-09-14 14:51:00,SystemResetWarning,0833.0,5.01,000.00,028.4,025.8,000.0,036.9,029.8,21.6,0000.0,0004.61,0010.87,0004.13
2023-09-14 14:52:00,SystemResetWarning,0832.9,5.00,000.00,028.4,026.1,000.0,036.9,029.9,21.2,0000.0,0004.59,0011.00,0004.13
2023-09-14 14:53:00,SystemResetWarning,0833.0,5.00,000.00,028.4,026.3,000.0,036.9,029.9,21.0,0000.0,0004.59,0010.88,0004.15
2023-09-14 14:54:00,SystemResetWarning,0833.0,5.00,000.00,028.4,026.5,000.0,036.9,030.0,20.9,0000.0,0004.58,0010.29,0004.16
2023-09-14 14:55:00,SystemResetWarning,0832.9,4.99,000.00,028.4,026.6,000.0,036.9,030.0,20.9,0000.0,0004.61,0010.86,0004.18
2023-09-14 14:56:00,SystemResetWarning,0833.0,5.00,000.00,028.4,026.8,000.0,036.8,030.0,20.9,0000.0,0004.67,0011.01,0004.19
2023-09-14 14:57:00,SystemResetWarning,0832.9,5.00,000.00,028.5,026.8,000.0,036.8,030.1,21.2,0000.0,0004.74,0010.88,0004.22
2023-09-14 14:58:00,SystemResetWarning,0833.4,5.00,000.00,028.5,026.9,000.0,036.8,030.1,21.3,0000.0,0004.84,0011.46,0004.25
2023-09-14 14:59:00,SystemResetWarning,0833.0,5.00,000.00,028.5,027.0,000.0,036.8,030.1,22.2,0000.0,0004.84,0011.48,0004.26
